Tracking 19636 objects as of 25-May-2019
HD Live streaming from Space Station
objects crossing your sky now

TDRS 5

Track TDRS 5 now!
TDRS 5 is classified as:


NORAD ID: 21639
Int'l Code: 1991-054B
Perigee: 35,686.7 km
Apogee: 35,898.7 km
Inclination: 14.4 °
Period: 1,436.0 minutes
Semi major axis: 42163 km
RCS: 20.8608 m2 (large)
Launch date: August 2, 1991
Source: United States (US)
Launch site: AIR FORCE EASTERN TEST RANGE (AFETR)

Tracking and communications with space shuttle, other missions; leased access to C-band by Americom.
aabbcc
Your satellite tracking list
Your tracking list is empty




NASA's NSSDC Master Catalog

Two Line Element Set (TLE):
1 21639U 91054B   19144.79925638 +.00000079 +00000-0 +00000-0 0  9994
2 21639 014.3876 014.2718 0025148 358.5290 349.4974 01.00275508101838
Source of the keplerian elements: AFSPC